Fort Belvoir, VA

8:12 PM EDT on September 26, 2016 (GMT -0400)
Davison Army Air Field

Weather History for KDAA - October, 2013

Change the Weather History Date:

Saturday, October 26, 2013

  Actual Average Record
Temperature  
Mean Temperature 42 °F -  
Max Temperature 56 °F 63 °F 75 °F (1998)
Min Temperature 28 °F 41 °F 28 °F (2013)
Degree Days  
Heating Degree Days 23    
Moisture  
Dew Point 29 °F    
Average Humidity 62    
Maximum Humidity 99    
Minimum Humidity 32    
Precipitation  
Precipitation 0.00 in - - ()
Sea Level Pressure  
Sea Level Pressure 30.16 in    
Wind  
Wind Speed 2 mph (South)    
Max Wind Speed 10 mph    
Max Gust Speed 18 mph    
Visibility 10 miles    
Events      
Averages and records for this station are not official NWS values.
T = Trace of Precipitation, MM = Missing Value Source: NWS Daily Summary

Daily Weather History Graph

Daily Weather History Graph

Search for Another Location

Airport or City:

Trip Planner

Search our weather history database for the weather conditions in past years. The results will help you decide how hot, cold, wet, or windy it might be!

Date:

Astronomy

Oct. 26, 2013 Rise Set
Actual Time 7:29 AM EDT 6:15 PM EDT
Civil Twilight 7:02 AM EDT 6:42 PM EDT
Nautical Twilight 6:31 AM EDT 7:13 PM EDT
Astronomical Twilight 6:00 AM EDT 7:44 PM EDT
Moon No Moon Rise 1:43 PM EDT (10/26)
Length of Visible Light 11h 40m
Length of Day
10h 45m
Waning Gibbous, 53% of the Moon is Illuminated
Oct 26
Waning Gibbous
Oct 26
Last Quarter
Nov 3
New
Nov 10
First Quarter
Nov 17
Full

Hourly Weather History & Observations

Time (EDT) Temp. Windchill Dew Point Humidity Pressure Visibility Wind Dir Wind Speed Gust Speed Precip Events Conditions
12:58 AM 34.0 °F - 31.8 °F 92% 30.33 in 10.0 mi Calm Calm - N/A   Clear
1:58 AM 31.5 °F - 30.6 °F 96% 30.33 in 10.0 mi SE 2.3 mph - N/A   Clear
2:58 AM 30.0 °F - 29.3 °F 97% 30.32 in 10.0 mi Calm Calm - N/A   Clear
3:58 AM 29.3 °F - 28.9 °F 99% 30.31 in 10.0 mi Calm Calm - N/A   Clear
4:58 AM 29.5 °F - 29.1 °F 99% 30.30 in 10.0 mi Calm Calm - N/A   Clear
5:58 AM 28.6 °F - 28.2 °F 99% 30.30 in 10.0 mi Calm Calm - N/A   Clear
6:58 AM 28.6 °F - 28.0 °F 98% 30.30 in 10.0 mi Calm Calm - N/A   Clear
7:58 AM 28.6 °F - 28.0 °F 98% 30.28 in 10.0 mi Calm Calm - N/A   Clear
8:58 AM 33.6 °F - 32.9 °F 97% 30.28 in 10.0 mi Calm Calm - N/A   Clear
9:58 AM 44.4 °F 42.0 °F 29.8 °F 57% 30.26 in 10.0 mi SSW 4.6 mph - N/A   Clear
10:58 AM 47.7 °F - 28.6 °F 48% 30.24 in 10.0 mi SSW 8.1 mph - N/A   Clear
11:58 AM 50.4 °F - 31.1 °F 48% 30.21 in 10.0 mi Variable 6.9 mph - N/A   Clear
12:58 PM 54.0 °F - 28.0 °F 37% 30.17 in 10.0 mi Variable 5.8 mph 18.4 mph N/A   Clear
1:58 PM 54.9 °F - 27.0 °F 34% 30.12 in 10.0 mi South 10.4 mph 18.4 mph N/A   Clear
2:58 PM 55.9 °F - 28.0 °F 34% 30.09 in 10.0 mi Variable 6.9 mph 18.4 mph N/A   Clear
3:58 PM 56.5 °F - 26.6 °F 32% 30.06 in 10.0 mi SSE 9.2 mph - N/A   Clear
4:58 PM 55.6 °F - 28.0 °F 35% 30.05 in 10.0 mi Variable 4.6 mph - N/A   Clear
5:58 PM 53.6 °F - 26.1 °F 35% 30.02 in 10.0 mi Variable 4.6 mph - N/A   Clear
6:58 PM 50.5 °F - 27.1 °F 40% 30.01 in 10.0 mi Variable 2.3 mph - N/A   Clear
7:58 PM 46.8 °F - 30.2 °F 53% 30.01 in 10.0 mi Variable 3.5 mph - N/A   Partly Cloudy
8:58 PM 52.5 °F - 28.9 °F 40% 30.00 in 10.0 mi SSW 6.9 mph - N/A   Overcast
9:58 PM 52.3 °F - 28.2 °F 39% 29.99 in 10.0 mi Variable 2.3 mph - N/A   Overcast
10:58 PM 52.0 °F - 29.1 °F 41% 29.98 in 10.0 mi Variable 2.3 mph - N/A   Mostly Cloudy
11:58 PM 52.3 °F - 29.5 °F 42% 29.99 in 10.0 mi SW 5.8 mph - N/A   Overcast